User: anonymous   Login
Location: NJAA Observatory
(40.6819°N, 74.8979°W)
Time: 05:35:18
(UTC-05:00)
Language:

Meteor 2-9 Rocket - Orbit

View from above orbital plane
View from above orbital plane
View from above satellite
View from above satellite

Ground track
Ground track

The orbit data is extracted from the following two-line orbital elements,

1 13719U 82116B   14355.11631221  .00000033  00000-0  97821-5 0  5831
2 13719 081.2532 170.8612 0072531 066.2977 070.8917 14.14508662651847
Epoch (UTC): 21 December 2014 02:47:29
Eccentricity: 0.0072531
inclination: 81.2532°
perigee height: 791 km
apogee height: 896 km
right ascension of ascending node: 170.8612°
argument of perigee: 66.2977°
revolutions per day: 14.14508662
mean anomaly at epoch: 70.8917°
orbit number at epoch: 65184

The dashed part of the orbit path shows where the satellite is in the earth's shadow,  

DLR